This is the latest recevied weather packets stored in our database for station/object W7TRD. If no packets are shown the sender has not sent any weather packets the latest 10 day(s).
| Time | Temp. | Humidity | Pressure | Rain* | Wind** | Luminosity | Snow |
|---|---|---|---|---|---|---|---|
| 1777993706 | 12.22° C | 97% | 1017 hPa | 0 mm | - | 35 W/m² | - |
| 1777993403 | 12.22° C | 97% | 1016.8 hPa | 0 mm | - | 42 W/m² | - |
| 1777993103 | 12.22° C | 97% | 1016.9 hPa | 0 mm | - | 46 W/m² | - |
| 1777992802 | 12.22° C | 98% | 1017.1 hPa | 0 mm | - | 43 W/m² | - |
| 1777992499 | 12.22° C | 98% | 1016.9 hPa | 0 mm | - | 36 W/m² | - |
| 1777992197 | 11.67° C | 98% | 1016.5 hPa | 0 mm | - | 38 W/m² | - |
| 1777991894 | 11.67° C | 98% | 1016.8 hPa | 0 mm | - | 36 W/m² | - |
| 1777991592 | 11.67° C | 98% | 1016.6 hPa | 0 mm | - | 32 W/m² | - |
| 1777991288 | 11.67° C | 98% | 1016.7 hPa | 0 mm | - | 28 W/m² | - |
| 1777990986 | 11.67° C | 98% | 1016.7 hPa | 0 mm | - | 21 W/m² | - |
| 1777990683 | 11.67° C | 98% | 1016.5 hPa | 0 mm | - | 21 W/m² | - |
| 1777990380 | 11.67° C | 98% | 1016.5 hPa | 0 mm | - | 19 W/m² | - |
| 1777990076 | 11.67° C | 98% | 1016.4 hPa | 0 mm | - | 15 W/m² | - |
| 1777989772 | 11.67° C | 98% | 1016.2 hPa | 0 mm | - | 13 W/m² | - |
| 1777989469 | 11.67° C | 98% | 1016.4 hPa | 0 mm | - | 11 W/m² | - |
| 1777989166 | 11.67° C | 98% | 1016.5 hPa | 0 mm | - | 9 W/m² | - |
| 1777988862 | 11.67° C | 98% | 1016.2 hPa | 0 mm | - | 8 W/m² | - |
| 1777988560 | 11.67° C | 98% | 1016.4 hPa | 0 mm | - | 8 W/m² | - |
| 1777988256 | 11.67° C | 98% | 1016.3 hPa | 0 mm | - | 7 W/m² | - |
| 1777987953 | 11.67° C | 97% | 1016.2 hPa | 0 mm | - | 6 W/m² | - |
| 1777987648 | 11.67° C | 97% | 1016 hPa | 0 mm | - | 5 W/m² | - |
| 1777987346 | 11.67° C | 97% | 1016.1 hPa | 0 mm | - | 4 W/m² | - |
| 1777987043 | 11.67° C | 97% | 1016.1 hPa | 0 mm | - | 3 W/m² | - |
| 1777986740 | 11.67° C | 97% | 1016 hPa | 0 mm | - | 3 W/m² | - |
| 1777986438 | 11.67° C | 97% | 1016 hPa | 0 mm | - | 2 W/m² | - |
* Rain latest hour (hover to see other rain measurements)
** Current wind speed in m/s (hover to see current wind gust speed)